owner,sensor,date,latitude,longitude,vertical_datum,wind_speed,wind_to_direction,wind_speed_of_gust,qcFlag 
WAVCIS,ioos:station:WAVCIS:CSI06:1,2016-03-01T00:00:00Z,28.8667,-90.4833,10.0,3.058,157.0,,'11111222,11111222,99999999' 
WAVCIS,ioos:station:WAVCIS:CSI06:1,2016-03-01T01:00:00Z,28.8667,-90.4833,10.0,3.748,161.0,,'11111222,11111222,99999999' 
WAVCIS,ioos:station:WAVCIS:CSI06:1,2016-03-01T02:00:00Z,28.8667,-90.4833,10.0,4.399,177.0,,'11111222,11111222,99999999' 
WAVCIS,ioos:station:WAVCIS:CSI06:1,2016-03-01T03:00:00Z,28.8667,-90.4833,10.0,4.418,149.0,,'11111222,11111222,99999999' 
WAVCIS,ioos:station:WAVCIS:CSI06:1,2016-03-01T04:00:00Z,28.8667,-90.4833,10.0,4.998,155.0,,'11111222,11111222,99999999' 
WAVCIS,ioos:station:WAVCIS:CSI06:1,2016-03-01T05:00:00Z,28.8667,-90.4833,10.0,5.948,156.0,,'11111222,11111222,99999999' 
WAVCIS,ioos:station:WAVCIS:CSI06:1,2016-03-01T06:00:00Z,28.8667,-90.4833,10.0,6.462,157.0,,'11111222,11111222,99999999' 
WAVCIS,ioos:station:WAVCIS:CSI06:1,2016-03-01T07:00:00Z,28.8667,-90.4833,10.0,6.084,164.0,,'11111222,11111222,99999999' 
WAVCIS,ioos:station:WAVCIS:CSI06:1,2016-03-01T08:00:00Z,28.8667,-90.4833,10.0,6.305,167.0,,'11111222,11111222,99999999' 
WAVCIS,ioos:station:WAVCIS:CSI06:1,2016-03-01T09:00:00Z,28.8667,-90.4833,10.0,6.647,172.0,,'11111222,11111222,99999999' 
WAVCIS,ioos:station:WAVCIS:CSI06:1,2016-03-01T10:00:00Z,28.8667,-90.4833,10.0,7.36,180.0,,'11111222,11111222,99999999' 
WAVCIS,ioos:station:WAVCIS:CSI06:1,2016-03-01T11:00:00Z,28.8667,-90.4833,10.0,6.603,173.0,,'11111222,11111222,99999999' 
WAVCIS,ioos:station:WAVCIS:CSI06:1,2016-03-01T12:00:00Z,28.8667,-90.4833,10.0,7.09,173.0,,'11111222,11111222,99999999' 
WAVCIS,ioos:station:WAVCIS:CSI06:1,2016-03-01T13:00:00Z,28.8667,-90.4833,10.0,6.096,175.0,,'11111222,11111222,99999999' 
WAVCIS,ioos:station:WAVCIS:CSI06:1,2016-03-01T14:00:00Z,28.8667,-90.4833,10.0,5.269,188.0,,'11111222,11111222,99999999' 
WAVCIS,ioos:station:WAVCIS:CSI06:1,2016-03-01T15:00:00Z,28.8667,-90.4833,10.0,4.865,198.0,,'11111222,11111222,99999999' 
WAVCIS,ioos:station:WAVCIS:CSI06:1,2016-03-01T16:00:00Z,28.8667,-90.4833,10.0,4.393,199.0,,'11111222,11111222,99999999' 
WAVCIS,ioos:station:WAVCIS:CSI06:1,2016-03-01T17:00:00Z,28.8667,-90.4833,10.0,3.858,198.0,,'11111222,11111222,99999999' 
WAVCIS,ioos:station:WAVCIS:CSI06:1,2016-03-01T18:00:00Z,28.8667,-90.4833,10.0,4.204,202.0,,'11111222,11111222,99999999' 
WAVCIS,ioos:station:WAVCIS:CSI06:1,2016-03-01T19:00:00Z,28.8667,-90.4833,10.0,4.953,214.0,,'11111222,11111222,99999999' 
WAVCIS,ioos:station:WAVCIS:CSI06:1,2016-03-01T20:00:00Z,28.8667,-90.4833,10.0,4.084,221.0,,'11111222,11111222,99999999' 
WAVCIS,ioos:station:WAVCIS:CSI06:1,2016-03-01T21:00:00Z,28.8667,-90.4833,10.0,4.36,222.0,,'11111222,11111222,99999999' 
WAVCIS,ioos:station:WAVCIS:CSI06:1,2016-03-01T22:00:00Z,28.8667,-90.4833,10.0,4.991,213.0,,'11111222,11111222,99999999' 
WAVCIS,ioos:station:WAVCIS:CSI06:1,2016-03-01T23:00:00Z,28.8667,-90.4833,10.0,5.553,210.0,,'11111222,11111222,99999999' 
WAVCIS,ioos:station:WAVCIS:CSI06:1,2016-03-02T00:00:00Z,28.8667,-90.4833,10.0,4.91,235.0,,'11111222,11111222,99999999' 
WAVCIS,ioos:station:WAVCIS:CSI06:1,2016-03-02T01:00:00Z,28.8667,-90.4833,10.0,4.721,245.0,,'11111222,11111222,99999999' 
WAVCIS,ioos:station:WAVCIS:CSI06:1,2016-03-02T02:00:00Z,28.8667,-90.4833,10.0,5.647,233.0,,'11111222,11111222,99999999' 
WAVCIS,ioos:station:WAVCIS:CSI06:1,2016-03-02T03:00:00Z,28.8667,-90.4833,10.0,6.33,236.0,,'11111222,11111222,99999999' 
WAVCIS,ioos:station:WAVCIS:CSI06:1,2016-03-02T04:00:00Z,28.8667,-90.4833,10.0,6.613,244.0,,'11111222,11111222,99999999' 
WAVCIS,ioos:station:WAVCIS:CSI06:1,2016-03-02T05:00:00Z,28.8667,-90.4833,10.0,7.4,236.0,,'11111222,11111222,99999999' 
WAVCIS,ioos:station:WAVCIS:CSI06:1,2016-03-02T06:00:00Z,28.8667,-90.4833,10.0,6.331,268.0,,'11111222,11111222,99999999' 
WAVCIS,ioos:station:WAVCIS:CSI06:1,2016-03-02T07:00:00Z,28.8667,-90.4833,10.0,7.68,279.0,,'11111222,11111222,99999999' 
WAVCIS,ioos:station:WAVCIS:CSI06:1,2016-03-02T08:00:00Z,28.8667,-90.4833,10.0,9.73,315.0,,'11111222,11111222,99999999' 
WAVCIS,ioos:station:WAVCIS:CSI06:1,2016-03-02T09:00:00Z,28.8667,-90.4833,10.0,7.85,331.0,,'11111222,11111222,99999999' 
WAVCIS,ioos:station:WAVCIS:CSI06:1,2016-03-02T10:00:00Z,28.8667,-90.4833,10.0,12.95,20.0,,'11111222,11111222,99999999' 
WAVCIS,ioos:station:WAVCIS:CSI06:1,2016-03-02T11:00:00Z,28.8667,-90.4833,10.0,12.33,23.0,,'11111222,11111222,99999999' 
WAVCIS,ioos:station:WAVCIS:CSI06:1,2016-03-02T12:00:00Z,28.8667,-90.4833,10.0,10.95,31.0,,'11111222,11111222,99999999' 
WAVCIS,ioos:station:WAVCIS:CSI06:1,2016-03-02T13:00:00Z,28.8667,-90.4833,10.0,10.62,43.0,,'11111222,11111222,99999999' 
WAVCIS,ioos:station:WAVCIS:CSI06:1,2016-03-02T14:00:00Z,28.8667,-90.4833,10.0,12.79,54.0,,'11111222,11111222,99999999' 
WAVCIS,ioos:station:WAVCIS:CSI06:1,2016-03-02T15:00:00Z,28.8667,-90.4833,10.0,11.26,54.0,,'11111222,11111222,99999999' 
WAVCIS,ioos:station:WAVCIS:CSI06:1,2016-03-02T16:00:00Z,28.8667,-90.4833,10.0,11.36,56.0,,'11111222,11111222,99999999' 
WAVCIS,ioos:station:WAVCIS:CSI06:1,2016-03-02T17:00:00Z,28.8667,-90.4833,10.0,11.64,65.0,,'11111222,11111222,99999999' 
WAVCIS,ioos:station:WAVCIS:CSI06:1,2016-03-02T18:00:00Z,28.8667,-90.4833,10.0,10.46,65.0,,'11111222,11111222,99999999' 
WAVCIS,ioos:station:WAVCIS:CSI06:1,2016-03-02T19:00:00Z,28.8667,-90.4833,10.0,9.57,73.0,,'11111222,11111222,99999999' 
WAVCIS,ioos:station:WAVCIS:CSI06:1,2016-03-02T20:00:00Z,28.8667,-90.4833,10.0,9.9,68.0,,'11111222,11111222,99999999' 
WAVCIS,ioos:station:WAVCIS:CSI06:1,2016-03-02T21:00:00Z,28.8667,-90.4833,10.0,8.7,73.0,,'11111222,11111222,99999999' 
WAVCIS,ioos:station:WAVCIS:CSI06:1,2016-03-02T22:00:00Z,28.8667,-90.4833,10.0,8.6,68.0,,'11111222,11111222,99999999' 
WAVCIS,ioos:station:WAVCIS:CSI06:1,2016-03-02T23:00:00Z,28.8667,-90.4833,10.0,7.77,80.0,,'11111222,11111222,99999999' 
WAVCIS,ioos:station:WAVCIS:CSI06:1,2016-03-03T00:00:00Z,28.8667,-90.4833,10.0,8.24,98.0,,'11111222,11111222,99999999' 
WAVCIS,ioos:station:WAVCIS:CSI06:1,2016-03-03T01:00:00Z,28.8667,-90.4833,10.0,8.37,97.0,,'11111222,11111222,99999999' 
WAVCIS,ioos:station:WAVCIS:CSI06:1,2016-03-03T02:00:00Z,28.8667,-90.4833,10.0,8.81,112.0,,'11111222,11111222,99999999' 
WAVCIS,ioos:station:WAVCIS:CSI06:1,2016-03-03T03:00:00Z,28.8667,-90.4833,10.0,9.3,114.0,,'11111222,11111222,99999999' 
WAVCIS,ioos:station:WAVCIS:CSI06:1,2016-03-03T04:00:00Z,28.8667,-90.4833,10.0,8.92,124.0,,'11111222,11111222,99999999' 
WAVCIS,ioos:station:WAVCIS:CSI06:1,2016-03-03T05:00:00Z,28.8667,-90.4833,10.0,8.38,129.0,,'11111222,11111222,99999999' 
WAVCIS,ioos:station:WAVCIS:CSI06:1,2016-03-03T06:00:00Z,28.8667,-90.4833,10.0,8.94,139.0,,'11111222,11111222,99999999' 
WAVCIS,ioos:station:WAVCIS:CSI06:1,2016-03-03T07:00:00Z,28.8667,-90.4833,10.0,8.45,142.0,,'11111222,11111222,99999999' 
WAVCIS,ioos:station:WAVCIS:CSI06:1,2016-03-03T08:00:00Z,28.8667,-90.4833,10.0,7.19,153.0,,'11111222,11111222,99999999' 
WAVCIS,ioos:station:WAVCIS:CSI06:1,2016-03-03T09:00:00Z,28.8667,-90.4833,10.0,7.84,170.0,,'11111222,11111222,99999999' 
WAVCIS,ioos:station:WAVCIS:CSI06:1,2016-03-03T10:00:00Z,28.8667,-90.4833,10.0,5.267,176.0,,'11111222,11111222,99999999' 
WAVCIS,ioos:station:WAVCIS:CSI06:1,2016-03-03T11:00:00Z,28.8667,-90.4833,10.0,5.498,162.0,,'11111222,11111222,99999999' 
WAVCIS,ioos:station:WAVCIS:CSI06:1,2016-03-03T12:00:00Z,28.8667,-90.4833,10.0,6.285,154.0,,'11111222,11111222,99999999' 
WAVCIS,ioos:station:WAVCIS:CSI06:1,2016-03-03T13:00:00Z,28.8667,-90.4833,10.0,6.885,157.0,,'11111222,11111222,99999999' 
WAVCIS,ioos:station:WAVCIS:CSI06:1,2016-03-03T14:00:00Z,28.8667,-90.4833,10.0,5.246,161.0,,'11111222,11111222,99999999' 
WAVCIS,ioos:station:WAVCIS:CSI06:1,2016-03-03T15:00:00Z,28.8667,-90.4833,10.0,8.29,165.0,,'11111222,11111222,99999999' 
WAVCIS,ioos:station:WAVCIS:CSI06:1,2016-03-03T16:00:00Z,28.8667,-90.4833,10.0,7.82,170.0,,'11111222,11111222,99999999' 
WAVCIS,ioos:station:WAVCIS:CSI06:1,2016-03-03T17:00:00Z,28.8667,-90.4833,10.0,4.342,180.0,,'11111222,11111222,99999999' 
WAVCIS,ioos:station:WAVCIS:CSI06:1,2016-03-03T18:00:00Z,28.8667,-90.4833,10.0,5.41,194.0,,'11111222,11111222,99999999' 
WAVCIS,ioos:station:WAVCIS:CSI06:1,2016-03-03T19:00:00Z,28.8667,-90.4833,10.0,6.266,211.0,,'11111222,11111222,99999999' 
WAVCIS,ioos:station:WAVCIS:CSI06:1,2016-03-03T20:00:00Z,28.8667,-90.4833,10.0,6.971,227.0,,'11111222,11111222,99999999' 
WAVCIS,ioos:station:WAVCIS:CSI06:1,2016-03-03T21:00:00Z,28.8667,-90.4833,10.0,7.71,237.0,,'11111222,11111222,99999999' 
WAVCIS,ioos:station:WAVCIS:CSI06:1,2016-03-03T22:00:00Z,28.8667,-90.4833,10.0,7.75,241.0,,'11111222,11111222,99999999' 
WAVCIS,ioos:station:WAVCIS:CSI06:1,2016-03-03T23:00:00Z,28.8667,-90.4833,10.0,8.95,241.0,,'11111222,11111222,99999999' 
WAVCIS,ioos:station:WAVCIS:CSI06:1,2016-03-04T00:00:00Z,28.8667,-90.4833,10.0,9.24,250.0,,'11111222,11111222,99999999' 
WAVCIS,ioos:station:WAVCIS:CSI06:1,2016-03-04T01:00:00Z,28.8667,-90.4833,10.0,7.68,251.0,,'11111222,11111222,99999999' 
WAVCIS,ioos:station:WAVCIS:CSI06:1,2016-03-04T02:00:00Z,28.8667,-90.4833,10.0,7.68,250.0,,'11111222,11111222,99999999' 
WAVCIS,ioos:station:WAVCIS:CSI06:1,2016-03-04T03:00:00Z,28.8667,-90.4833,10.0,7.59,257.0,,'11111222,11111222,99999999' 
WAVCIS,ioos:station:WAVCIS:CSI06:1,2016-03-04T04:00:00Z,28.8667,-90.4833,10.0,7.19,268.0,,'11111222,11111222,99999999' 
WAVCIS,ioos:station:WAVCIS:CSI06:1,2016-03-04T05:00:00Z,28.8667,-90.4833,10.0,6.79,298.0,,'11111222,11111222,99999999' 
WAVCIS,ioos:station:WAVCIS:CSI06:1,2016-03-04T06:00:00Z,28.8667,-90.4833,10.0,8.86,328.0,,'11111222,11111222,99999999' 
WAVCIS,ioos:station:WAVCIS:CSI06:1,2016-03-04T07:00:00Z,28.8667,-90.4833,10.0,10.37,42.0,,'11111222,11111222,99999999' 
WAVCIS,ioos:station:WAVCIS:CSI06:1,2016-03-04T08:00:00Z,28.8667,-90.4833,10.0,9.8,39.0,,'11111222,11111222,99999999' 
WAVCIS,ioos:station:WAVCIS:CSI06:1,2016-03-04T09:00:00Z,28.8667,-90.4833,10.0,10.97,40.0,,'11111222,11111222,99999999' 
WAVCIS,ioos:station:WAVCIS:CSI06:1,2016-03-04T10:00:00Z,28.8667,-90.4833,10.0,9.65,44.0,,'11111222,11111222,99999999' 
WAVCIS,ioos:station:WAVCIS:CSI06:1,2016-03-04T11:00:00Z,28.8667,-90.4833,10.0,9.52,50.0,,'11111222,11111222,99999999' 
WAVCIS,ioos:station:WAVCIS:CSI06:1,2016-03-04T12:00:00Z,28.8667,-90.4833,10.0,9.79,47.0,,'11111222,11111222,99999999' 
WAVCIS,ioos:station:WAVCIS:CSI06:1,2016-03-04T13:00:00Z,28.8667,-90.4833,10.0,8.45,51.0,,'11111222,11111222,99999999' 
WAVCIS,ioos:station:WAVCIS:CSI06:1,2016-03-04T14:00:00Z,28.8667,-90.4833,10.0,8.1,53.0,,'11111222,11111222,99999999' 
WAVCIS,ioos:station:WAVCIS:CSI06:1,2016-03-04T15:00:00Z,28.8667,-90.4833,10.0,8.49,48.0,,'11111222,11111222,99999999' 
WAVCIS,ioos:station:WAVCIS:CSI06:1,2016-03-04T16:00:00Z,28.8667,-90.4833,10.0,8.48,53.0,,'11111222,11111222,99999999' 
WAVCIS,ioos:station:WAVCIS:CSI06:1,2016-03-04T17:00:00Z,28.8667,-90.4833,10.0,8.19,56.0,,'11111222,11111222,99999999' 
WAVCIS,ioos:station:WAVCIS:CSI06:1,2016-03-04T18:00:00Z,28.8667,-90.4833,10.0,6.478,65.0,,'11111222,11111222,99999999' 
WAVCIS,ioos:station:WAVCIS:CSI06:1,2016-03-04T19:00:00Z,28.8667,-90.4833,10.0,6.332,59.0,,'11111222,11111222,99999999' 
WAVCIS,ioos:station:WAVCIS:CSI06:1,2016-03-04T20:00:00Z,28.8667,-90.4833,10.0,4.1,60.0,5.7,'11111222,11111222,11111222' 
WAVCIS,ioos:station:WAVCIS:CSI06:1,2016-03-04T21:00:00Z,28.8667,-90.4833,10.0,2.974,73.0,,'11111222,11111222,99999999' 
WAVCIS,ioos:station:WAVCIS:CSI06:1,2016-03-04T22:00:00Z,28.8667,-90.4833,10.0,3.076,89.0,,'11111222,11111222,99999999' 
WAVCIS,ioos:station:WAVCIS:CSI06:1,2016-03-04T23:00:00Z,28.8667,-90.4833,10.0,4.059,94.0,,'11111222,11111222,99999999' 
WAVCIS,ioos:station:WAVCIS:CSI06:1,2016-03-05T00:00:00Z,28.8667,-90.4833,10.0,4.633,107.0,,'11111222,11111222,99999999' 
WAVCIS,ioos:station:WAVCIS:CSI06:1,2016-03-05T01:00:00Z,28.8667,-90.4833,10.0,5.066,97.0,,'11111222,11111222,99999999' 
WAVCIS,ioos:station:WAVCIS:CSI06:1,2016-03-05T02:00:00Z,28.8667,-90.4833,10.0,5.483,101.0,,'11111222,11111222,99999999' 
WAVCIS,ioos:station:WAVCIS:CSI06:1,2016-03-05T03:00:00Z,28.8667,-90.4833,10.0,4.683,115.0,,'11111222,11111222,99999999' 
WAVCIS,ioos:station:WAVCIS:CSI06:1,2016-03-05T04:00:00Z,28.8667,-90.4833,10.0,3.618,119.0,,'11111222,11111222,99999999' 
WAVCIS,ioos:station:WAVCIS:CSI06:1,2016-03-05T05:00:00Z,28.8667,-90.4833,10.0,4.094,129.0,,'11111222,11111222,99999999' 
WAVCIS,ioos:station:WAVCIS:CSI06:1,2016-03-05T06:00:00Z,28.8667,-90.4833,10.0,2.251,145.0,,'11111222,11111222,99999999' 
WAVCIS,ioos:station:WAVCIS:CSI06:1,2016-03-05T07:00:00Z,28.8667,-90.4833,10.0,1.581,133.0,,'11111222,11111222,99999999' 
WAVCIS,ioos:station:WAVCIS:CSI06:1,2016-03-05T08:00:00Z,28.8667,-90.4833,10.0,2.339,124.0,,'11111222,11111222,99999999' 
WAVCIS,ioos:station:WAVCIS:CSI06:1,2016-03-05T09:00:00Z,28.8667,-90.4833,10.0,2.587,90.0,,'11111222,11111222,99999999' 
WAVCIS,ioos:station:WAVCIS:CSI06:1,2016-03-05T10:00:00Z,28.8667,-90.4833,10.0,3.227,78.0,,'11111222,11111222,99999999' 
WAVCIS,ioos:station:WAVCIS:CSI06:1,2016-03-05T11:00:00Z,28.8667,-90.4833,10.0,3.903,66.0,,'11111222,11111222,99999999' 
WAVCIS,ioos:station:WAVCIS:CSI06:1,2016-03-05T12:00:00Z,28.8667,-90.4833,10.0,4.002,72.0,,'11111222,11111222,99999999' 
WAVCIS,ioos:station:WAVCIS:CSI06:1,2016-03-05T13:00:00Z,28.8667,-90.4833,10.0,4.777,52.0,,'11111222,11111222,99999999' 
WAVCIS,ioos:station:WAVCIS:CSI06:1,2016-03-05T14:00:00Z,28.8667,-90.4833,10.0,6.114,57.0,,'11111222,11111222,99999999' 
WAVCIS,ioos:station:WAVCIS:CSI06:1,2016-03-05T15:00:00Z,28.8667,-90.4833,10.0,5.814,67.0,,'11111222,11111222,99999999' 
WAVCIS,ioos:station:WAVCIS:CSI06:1,2016-03-05T16:00:00Z,28.8667,-90.4833,10.0,5.86,56.0,,'11111222,11111222,99999999' 
WAVCIS,ioos:station:WAVCIS:CSI06:1,2016-03-05T17:00:00Z,28.8667,-90.4833,10.0,4.123,55.0,,'11111222,11111222,99999999' 
WAVCIS,ioos:station:WAVCIS:CSI06:1,2016-03-05T18:00:00Z,28.8667,-90.4833,10.0,3.381,60.0,,'11111222,11111222,99999999' 
WAVCIS,ioos:station:WAVCIS:CSI06:1,2016-03-05T19:00:00Z,28.8667,-90.4833,10.0,1.697,68.0,,'11111222,11111222,99999999' 
WAVCIS,ioos:station:WAVCIS:CSI06:1,2016-03-05T20:00:00Z,28.8667,-90.4833,10.0,1.847,132.0,,'11111222,11111222,99999999' 
WAVCIS,ioos:station:WAVCIS:CSI06:1,2016-03-05T21:00:00Z,28.8667,-90.4833,10.0,2.737,151.0,,'11111222,11111222,99999999' 
WAVCIS,ioos:station:WAVCIS:CSI06:1,2016-03-05T22:00:00Z,28.8667,-90.4833,10.0,4.065,160.0,,'11111222,11111222,99999999' 
WAVCIS,ioos:station:WAVCIS:CSI06:1,2016-03-05T23:00:00Z,28.8667,-90.4833,10.0,2.823,174.0,,'11111222,11111222,99999999' 
WAVCIS,ioos:station:WAVCIS:CSI06:1,2016-03-06T00:00:00Z,28.8667,-90.4833,10.0,2.139,195.0,,'11111222,11111222,99999999' 
WAVCIS,ioos:station:WAVCIS:CSI06:1,2016-03-06T01:00:00Z,28.8667,-90.4833,10.0,1.529,227.0,,'11111222,11111222,99999999' 
WAVCIS,ioos:station:WAVCIS:CSI06:1,2016-03-06T02:00:00Z,28.8667,-90.4833,10.0,2.038,223.0,,'11111222,11111222,99999999' 
WAVCIS,ioos:station:WAVCIS:CSI06:1,2016-03-06T03:00:00Z,28.8667,-90.4833,10.0,2.206,223.0,,'11111222,11111222,99999999' 
WAVCIS,ioos:station:WAVCIS:CSI06:1,2016-03-06T04:00:00Z,28.8667,-90.4833,10.0,1.209,245.0,,'11111222,11111222,99999999' 
WAVCIS,ioos:station:WAVCIS:CSI06:1,2016-03-06T05:00:00Z,28.8667,-90.4833,10.0,2.32,246.0,,'11111222,11111222,99999999' 
WAVCIS,ioos:station:WAVCIS:CSI06:1,2016-03-06T06:00:00Z,28.8667,-90.4833,10.0,2.276,291.0,,'11111222,11111222,99999999' 
WAVCIS,ioos:station:WAVCIS:CSI06:1,2016-03-06T07:00:00Z,28.8667,-90.4833,10.0,1.817,272.0,,'11111222,11111222,99999999' 
WAVCIS,ioos:station:WAVCIS:CSI06:1,2016-03-06T08:00:00Z,28.8667,-90.4833,10.0,1.071,307.0,,'11111222,11111222,99999999' 
WAVCIS,ioos:station:WAVCIS:CSI06:1,2016-03-06T09:00:00Z,28.8667,-90.4833,10.0,0.421,323.0,,'11111222,11111222,99999999' 
WAVCIS,ioos:station:WAVCIS:CSI06:1,2016-03-06T10:00:00Z,28.8667,-90.4833,10.0,0.722,291.0,,'11111222,11111222,99999999' 
WAVCIS,ioos:station:WAVCIS:CSI06:1,2016-03-06T11:00:00Z,28.8667,-90.4833,10.0,1.049,320.0,,'11111222,11111222,99999999' 
WAVCIS,ioos:station:WAVCIS:CSI06:1,2016-03-06T12:00:00Z,28.8667,-90.4833,10.0,0.525,34.0,,'11111222,11111222,99999999' 
WAVCIS,ioos:station:WAVCIS:CSI06:1,2016-03-06T13:00:00Z,28.8667,-90.4833,10.0,1.189,31.0,,'11111222,11111222,99999999' 
WAVCIS,ioos:station:WAVCIS:CSI06:1,2016-03-06T14:00:00Z,28.8667,-90.4833,10.0,1.309,85.0,,'11111222,11111222,99999999' 
WAVCIS,ioos:station:WAVCIS:CSI06:1,2016-03-06T15:00:00Z,28.8667,-90.4833,10.0,1.771,48.0,,'11111222,11111222,99999999' 
WAVCIS,ioos:station:WAVCIS:CSI06:1,2016-03-06T16:00:00Z,28.8667,-90.4833,10.0,2.976,58.0,,'11111222,11111222,99999999' 
WAVCIS,ioos:station:WAVCIS:CSI06:1,2016-03-06T17:00:00Z,28.8667,-90.4833,10.0,3.594,65.0,,'11111222,11111222,99999999' 
WAVCIS,ioos:station:WAVCIS:CSI06:1,2016-03-06T18:00:00Z,28.8667,-90.4833,10.0,4.412,77.0,,'11111222,11111222,99999999' 
WAVCIS,ioos:station:WAVCIS:CSI06:1,2016-03-06T19:00:00Z,28.8667,-90.4833,10.0,4.865,87.0,,'11111222,11111222,99999999' 
WAVCIS,ioos:station:WAVCIS:CSI06:1,2016-03-06T20:00:00Z,28.8667,-90.4833,10.0,5.651,93.0,,'11111222,11111222,99999999' 
WAVCIS,ioos:station:WAVCIS:CSI06:1,2016-03-06T21:00:00Z,28.8667,-90.4833,10.0,7.41,111.0,,'11111222,11111222,99999999' 
WAVCIS,ioos:station:WAVCIS:CSI06:1,2016-03-06T22:00:00Z,28.8667,-90.4833,10.0,7.56,111.0,,'11111222,11111222,99999999' 
WAVCIS,ioos:station:WAVCIS:CSI06:1,2016-03-06T23:00:00Z,28.8667,-90.4833,10.0,6.979,119.0,,'11111222,11111222,99999999' 
WAVCIS,ioos:station:WAVCIS:CSI06:1,2016-03-07T00:00:00Z,28.8667,-90.4833,10.0,6.968,117.0,,'11111222,11111222,99999999' 
WAVCIS,ioos:station:WAVCIS:CSI06:1,2016-03-07T01:00:00Z,28.8667,-90.4833,10.0,6.711,117.0,,'11111222,11111222,99999999' 
WAVCIS,ioos:station:WAVCIS:CSI06:1,2016-03-07T02:00:00Z,28.8667,-90.4833,10.0,7.78,129.0,,'11111222,11111222,99999999' 
WAVCIS,ioos:station:WAVCIS:CSI06:1,2016-03-07T03:00:00Z,28.8667,-90.4833,10.0,6.793,127.0,,'11111222,11111222,99999999' 
WAVCIS,ioos:station:WAVCIS:CSI06:1,2016-03-07T04:00:00Z,28.8667,-90.4833,10.0,7.15,138.0,,'11111222,11111222,99999999' 
WAVCIS,ioos:station:WAVCIS:CSI06:1,2016-03-07T05:00:00Z,28.8667,-90.4833,10.0,8.68,129.0,,'11111222,11111222,99999999' 
WAVCIS,ioos:station:WAVCIS:CSI06:1,2016-03-07T06:00:00Z,28.8667,-90.4833,10.0,8.76,138.0,,'11111222,11111222,99999999' 
WAVCIS,ioos:station:WAVCIS:CSI06:1,2016-03-07T07:00:00Z,28.8667,-90.4833,10.0,9.04,140.0,,'11111222,11111222,99999999' 
WAVCIS,ioos:station:WAVCIS:CSI06:1,2016-03-07T08:00:00Z,28.8667,-90.4833,10.0,9.5,138.0,,'11111222,11111222,99999999' 
WAVCIS,ioos:station:WAVCIS:CSI06:1,2016-03-07T09:00:00Z,28.8667,-90.4833,10.0,9.85,138.0,,'11111222,11111222,99999999' 
WAVCIS,ioos:station:WAVCIS:CSI06:1,2016-03-07T10:00:00Z,28.8667,-90.4833,10.0,10.26,141.0,,'11111222,11111222,99999999' 
WAVCIS,ioos:station:WAVCIS:CSI06:1,2016-03-07T11:00:00Z,28.8667,-90.4833,10.0,10.76,143.0,,'11111222,11111222,99999999' 
WAVCIS,ioos:station:WAVCIS:CSI06:1,2016-03-07T12:00:00Z,28.8667,-90.4833,10.0,10.47,143.0,,'11111222,11111222,99999999' 
WAVCIS,ioos:station:WAVCIS:CSI06:1,2016-03-07T13:00:00Z,28.8667,-90.4833,10.0,9.56,146.0,,'11111222,11111222,99999999' 
WAVCIS,ioos:station:WAVCIS:CSI06:1,2016-03-07T14:00:00Z,28.8667,-90.4833,10.0,10.62,142.0,,'11111222,11111222,99999999' 
WAVCIS,ioos:station:WAVCIS:CSI06:1,2016-03-07T15:00:00Z,28.8667,-90.4833,10.0,9.08,142.0,,'11111222,11111222,99999999' 
WAVCIS,ioos:station:WAVCIS:CSI06:1,2016-03-07T16:00:00Z,28.8667,-90.4833,10.0,8.48,146.0,,'11111222,11111222,99999999' 
WAVCIS,ioos:station:WAVCIS:CSI06:1,2016-03-07T17:00:00Z,28.8667,-90.4833,10.0,7.42,150.0,,'11111222,11111222,99999999' 
WAVCIS,ioos:station:WAVCIS:CSI06:1,2016-03-07T18:00:00Z,28.8667,-90.4833,10.0,6.966,142.0,,'11111222,11111222,99999999' 
WAVCIS,ioos:station:WAVCIS:CSI06:1,2016-03-07T19:00:00Z,28.8667,-90.4833,10.0,4.444,139.0,,'11111222,11111222,99999999' 
WAVCIS,ioos:station:WAVCIS:CSI06:1,2016-03-07T20:00:00Z,28.8667,-90.4833,10.0,5.067,120.0,,'11111222,11111222,99999999' 
WAVCIS,ioos:station:WAVCIS:CSI06:1,2016-03-07T21:00:00Z,28.8667,-90.4833,10.0,6.668,107.0,,'11111222,11111222,99999999' 
WAVCIS,ioos:station:WAVCIS:CSI06:1,2016-03-07T22:00:00Z,28.8667,-90.4833,10.0,7.17,109.0,,'11111222,11111222,99999999' 
WAVCIS,ioos:station:WAVCIS:CSI06:1,2016-03-07T23:00:00Z,28.8667,-90.4833,10.0,7.19,115.0,,'11111222,11111222,99999999' 
WAVCIS,ioos:station:WAVCIS:CSI06:1,2016-03-08T00:00:00Z,28.8667,-90.4833,10.0,8.93,90.0,,'11111222,11111222,99999999' 
WAVCIS,ioos:station:WAVCIS:CSI06:1,2016-03-08T01:00:00Z,28.8667,-90.4833,10.0,9.83,95.0,,'11111222,11111222,99999999' 
WAVCIS,ioos:station:WAVCIS:CSI06:1,2016-03-08T02:00:00Z,28.8667,-90.4833,10.0,9.4,94.0,,'11111222,11111222,99999999' 
WAVCIS,ioos:station:WAVCIS:CSI06:1,2016-03-08T03:00:00Z,28.8667,-90.4833,10.0,8.54,107.0,,'11111222,11111222,99999999' 
WAVCIS,ioos:station:WAVCIS:CSI06:1,2016-03-08T04:00:00Z,28.8667,-90.4833,10.0,9.17,108.0,,'11111222,11111222,99999999' 
WAVCIS,ioos:station:WAVCIS:CSI06:1,2016-03-08T05:00:00Z,28.8667,-90.4833,10.0,9.22,117.0,,'11111222,11111222,99999999' 
WAVCIS,ioos:station:WAVCIS:CSI06:1,2016-03-08T06:00:00Z,28.8667,-90.4833,10.0,9.82,123.0,,'11111222,11111222,99999999' 
WAVCIS,ioos:station:WAVCIS:CSI06:1,2016-03-08T07:00:00Z,28.8667,-90.4833,10.0,11.68,125.0,,'11111222,11111222,99999999' 
WAVCIS,ioos:station:WAVCIS:CSI06:1,2016-03-08T08:00:00Z,28.8667,-90.4833,10.0,11.95,125.0,,'11111222,11111222,99999999' 
WAVCIS,ioos:station:WAVCIS:CSI06:1,2016-03-08T09:00:00Z,28.8667,-90.4833,10.0,12.5,124.0,,'11111222,11111222,99999999' 
WAVCIS,ioos:station:WAVCIS:CSI06:1,2016-03-08T10:00:00Z,28.8667,-90.4833,10.0,11.07,125.0,,'11111222,11111222,99999999' 
WAVCIS,ioos:station:WAVCIS:CSI06:1,2016-03-08T11:00:00Z,28.8667,-90.4833,10.0,11.16,124.0,,'11111222,11111222,99999999' 
WAVCIS,ioos:station:WAVCIS:CSI06:1,2016-03-08T12:00:00Z,28.8667,-90.4833,10.0,10.46,127.0,,'11111222,11111222,99999999' 
WAVCIS,ioos:station:WAVCIS:CSI06:1,2016-03-08T13:00:00Z,28.8667,-90.4833,10.0,9.69,130.0,,'11111222,11111222,99999999' 
WAVCIS,ioos:station:WAVCIS:CSI06:1,2016-03-08T14:00:00Z,28.8667,-90.4833,10.0,9.81,125.0,,'11111222,11111222,99999999' 
WAVCIS,ioos:station:WAVCIS:CSI06:1,2016-03-08T15:00:00Z,28.8667,-90.4833,10.0,9.91,124.0,,'11111222,11111222,99999999' 
WAVCIS,ioos:station:WAVCIS:CSI06:1,2016-03-08T16:00:00Z,28.8667,-90.4833,10.0,10.47,123.0,,'11111222,11111222,99999999' 
WAVCIS,ioos:station:WAVCIS:CSI06:1,2016-03-08T17:00:00Z,28.8667,-90.4833,10.0,10.14,121.0,,'11111222,11111222,99999999' 
WAVCIS,ioos:station:WAVCIS:CSI06:1,2016-03-08T18:00:00Z,28.8667,-90.4833,10.0,11.05,117.0,,'11111222,11111222,99999999' 
WAVCIS,ioos:station:WAVCIS:CSI06:1,2016-03-08T19:00:00Z,28.8667,-90.4833,10.0,11.59,116.0,,'11111222,11111222,99999999' 
WAVCIS,ioos:station:WAVCIS:CSI06:1,2016-03-08T20:00:00Z,28.8667,-90.4833,10.0,11.05,121.0,,'11111222,11111222,99999999' 
WAVCIS,ioos:station:WAVCIS:CSI06:1,2016-03-08T21:00:00Z,28.8667,-90.4833,10.0,10.79,124.0,,'11111222,11111222,99999999' 
WAVCIS,ioos:station:WAVCIS:CSI06:1,2016-03-08T22:00:00Z,28.8667,-90.4833,10.0,12.93,123.0,,'11111222,11111222,99999999' 
WAVCIS,ioos:station:WAVCIS:CSI06:1,2016-03-08T23:00:00Z,28.8667,-90.4833,10.0,12.96,124.0,,'11111222,11111222,99999999' 
WAVCIS,ioos:station:WAVCIS:CSI06:1,2016-03-09T00:00:00Z,28.8667,-90.4833,10.0,13.1,123.0,,'11111222,11111222,99999999' 
WAVCIS,ioos:station:WAVCIS:CSI06:1,2016-03-09T01:00:00Z,28.8667,-90.4833,10.0,13.51,123.0,,'11111222,11111222,99999999' 
WAVCIS,ioos:station:WAVCIS:CSI06:1,2016-03-09T02:00:00Z,28.8667,-90.4833,10.0,12.42,122.0,,'11111222,11111222,99999999' 
WAVCIS,ioos:station:WAVCIS:CSI06:1,2016-03-09T03:00:00Z,28.8667,-90.4833,10.0,12.11,123.0,,'11111222,11111222,99999999' 
WAVCIS,ioos:station:WAVCIS:CSI06:1,2016-03-09T04:00:00Z,28.8667,-90.4833,10.0,12.42,126.0,,'11111222,11111222,99999999' 
WAVCIS,ioos:station:WAVCIS:CSI06:1,2016-03-09T05:00:00Z,28.8667,-90.4833,10.0,12.3,128.0,,'11111222,11111222,99999999' 